DW8297 Weather Reports


time (UTC)temp
F
wind
direction
speed
knots
gust
knots
rain 1hr
in
rain 24hr
in
rain mn
in
humidity
%
barometer
mb
20260510114115 -39 12 0.0 0.0 0.00 0.00 0.00 88 1016.7
20260510113318 -39 12 0.0 0.0 0.00 0.00 0.00 88 1016.5
20260510111751 -39 12 0.0 0.0 0.00 0.00 0.00 88 1016.7
20260510105517 -39 12 0.0 0.0 0.00 0.00 0.00 88 1016.5
20260510104018 -39 12 0.0 0.0 0.00 0.00 0.00 88 1016.2
20260510102504 -39 12 0.0 0.0 0.00 0.00 0.00 88 1016.1
20260510101001 -39 12 0.0 0.0 0.00 0.00 0.00 88 1015.8
20260510095458 -39 12 0.0 0.0 0.00 0.00 0.00 88 1015.9
20260510093955 -39 12 0.0 0.0 0.00 0.00 0.00 88 1015.9
20260510093222 -39 12 0.0 0.0 0.00 0.00 0.00 88 1015.5
20260510090949 -39 12 0.0 0.0 0.00 0.00 0.00 88 1015.8
20260510085444 -39 24 0.0 0.0 0.00 0.00 0.00 88 1015.8
20260510083942 -39 23 0.0 0.0 0.00 0.00 0.00 88 1015.7
20260510082438 -39 48 0.0 0.0 0.00 0.00 0.00 88 1015.9
20260510080934 -39 347 0.0 0.0 0.00 0.00 0.00 88 1015.2
20260510075432 -39 347 0.0 0.0 0.00 0.00 0.00 88 1015.2
20260510073931 -39 327 0.0 0.0 0.00 0.00 0.00 88 1015.1
20260510072427 -39 327 0.0 0.0 0.00 0.00 0.00 88 1015.0
20260510071656 -39 327 0.0 0.0 0.00 0.00 0.00 88 1014.7
20260510065417 -39 327 0.0 0.0 0.00 0.00 0.00 88 1014.7
20260510063918 -39 326 0.0 0.0 0.00 0.00 0.00 88 1014.4
20260510062414 -39 326 0.0 0.0 0.00 0.00 0.00 88 1014.6
20260510060914 -39 326 0.0 0.0 0.00 0.00 0.00 88 1014.6
20260510055411 -39 326 0.0 0.0 0.00 0.00 0.00 88 1014.7
20260510053912 -39 326 0.0 0.0 0.00 0.00 0.00 88 1014.9
20260510052403 -39 326 0.0 0.0 0.00 0.00 0.00 88 1015.0
20260510050901 -39 326 0.0 0.0 0.00 0.00 0.00 88 1015.0
20260510045355 -39 326 0.0 0.0 0.00 0.00 0.00 88 1015.1
20260510043856 -39 326 0.0 0.0 0.00 0.00 0.00 88 1015.2
20260510042356 -39 326 0.0 0.0 0.00 0.00 0.00 88 1015.2
20260510040849 -39 326 0.0 0.0 0.00 0.00 0.00 88 1015.2
20260510040829 -39 326 0.0 0.0 0.00 0.00 0.00 88 1015.3
20260510033823 -39 326 0.0 0.0 0.00 0.00 0.00 88 1015.2
20260510032324 -39 326 0.0 0.0 0.00 0.00 0.00 88 1015.1
20260510030812 -39 326 0.0 0.0 0.00 0.00 0.00 88 1014.7
20260510025312 -39 326 0.0 0.0 0.00 0.00 0.00 88 1014.7
20260510024537 -39 326 0.0 0.0 0.00 0.00 0.00 88 1014.9
20260510022301 -39 326 0.0 0.0 0.00 0.00 0.00 88 1014.8
20260510020752 -39 326 0.0 0.0 0.00 0.00 0.00 88 1014.6
20260510015244 -39 326 0.0 0.0 0.00 0.00 0.00 88 1014.6
20260510013739 -39 326 0.0 0.0 0.00 0.00 0.00 88 1014.6
20260510012235 -39 326 0.0 0.0 0.00 0.00 0.00 88 1014.3
20260510010726 -39 326 0.0 0.0 0.00 0.00 0.00 88 1014.3
20260510005219 -39 326 0.0 0.0 0.00 0.00 0.00 88 1014.0
20260510003712 -39 326 0.0 0.0 0.00 0.00 0.00 88 1013.9
20260510002205 -39 326 0.0 0.0 0.00 0.00 0.00 88 1014.0
20260510000700 -39 326 0.0 0.0 0.00 0.00 0.00 88 1013.9
20260509235200 -39 325 0.0 0.0 0.00 0.00 0.00 88 1014.0
20260509233652 -39 326 0.0 0.0 0.00 0.00 0.00 88 1014.0
20260509232150 -39 325 0.0 0.0 0.00 0.00 0.00 88 1013.9
20260509230646 -39 326 0.0 0.0 0.00 0.00 0.00 88 1013.8
20260509225906 -39 178 0.0 0.0 0.00 0.00 0.00 88 1013.9
20260509223632 -39 130 0.0 0.0 0.00 0.00 0.00 88 1014.0
20260509222128 -39 211 0.0 0.0 0.00 0.00 0.00 88 1013.9
20260509220619 -39 185 1.7 4.3 0.00 0.00 0.00 88 1013.9
20260509215842 -39 163 0.0 0.0 0.00 0.00 0.00 88 1014.0
20260509213605 -39 108 0.0 0.0 0.00 0.00 0.00 88 1013.9
20260509212102 -39 70 0.0 0.0 0.00 0.00 0.00 88 1014.0
20260509210555 -39 34 0.0 0.0 0.00 0.00 0.00 88 1013.9
20260509205051 -39 30 0.0 0.0 0.00 0.00 0.00 88 1013.9
20260509203550 -39 30 0.0 0.0 0.00 0.00 0.00 88 1014.3
20260509202819 -39 30 0.0 0.0 0.00 0.00 0.00 88 1013.9
20260509200544 -39 20 0.0 0.0 0.00 0.00 0.00 88 1014.1
20260509195044 -39 34 0.0 0.0 0.00 0.00 0.00 88 1014.0
20260509193538 -39 26 0.0 0.0 0.00 0.00 0.00 88 1014.7
20260509192037 -39 34 0.0 0.0 0.00 0.00 0.00 88 1014.7
20260509190535 -39 25 0.0 0.0 0.00 0.00 0.00 88 1015.1
20260509185033 -39 34 0.0 0.0 0.00 0.00 0.00 88 1015.3
20260509183530 -39 39 0.0 0.0 0.00 0.00 0.00 88 1015.2
20260509182029 -39 33 0.0 0.0 0.00 0.00 0.00 88 1015.4
20260509180529 -39 24 0.0 0.0 0.00 0.00 0.00 88 1015.5
20260509175754 -39 16 0.0 0.0 0.00 0.00 0.00 88 1015.5
20260509173522 -39 25 0.0 0.9 0.00 0.00 0.00 88 1015.4
20260509172021 -39 25 0.0 0.0 0.00 0.00 0.00 88 1015.2
20260509170517 -39 17 0.0 0.0 0.00 0.00 0.00 88 1015.3
20260509165016 -39 16 0.0 0.0 0.00 0.00 0.00 88 1015.2
20260509163512 -39 14 0.0 0.0 0.00 0.00 0.00 88 1015.2
20260509162010 -39 31 0.0 0.0 0.00 0.00 0.00 88 1015.5
20260509160508 -39 25 0.0 0.0 0.00 0.00 0.00 88 1015.8
20260509155006 -39 22 0.0 0.0 0.00 0.00 0.00 88 1016.1
20260509154236 -39 6 0.0 0.0 0.00 0.00 0.00 88 1016.1
20260509152000 -39 18 0.0 0.0 0.00 0.00 0.00 88 1016.2
20260509150456 -39 15 0.0 0.0 0.00 0.00 0.00 88 1016.2
20260509145732 -39 9 0.9 2.6 0.00 0.00 0.00 88 1015.9
20260509144956 -39 14 0.0 0.0 0.00 0.00 0.00 88 1016.1
20260509141942 -39 23 1.7 5.2 0.00 0.00 0.00 88 1015.8
20260509140443 -39 15 0.0 3.5 0.00 0.00 0.00 88 1015.7
20260509134933 -39 53 0.9 3.5 0.00 0.00 0.00 88 1015.8
20260509134144 -39 28 0.0 1.7 0.00 0.00 0.00 88 1015.7
20260509131906 -39 328 0.0 3.5 0.00 0.00 0.00 88 1015.7
20260509131138 -39 10 0.0 2.6 0.00 0.00 0.00 88 1015.8
20260509125638 -39 256 0.0 4.3 0.00 0.00 0.00 88 1015.8
20260509124131 -39 239 0.0 3.5 0.00 0.00 0.00 88 1015.9
20260509121855 -39 46 0.0 1.7 0.00 0.00 0.00 88 1015.8
20260509120344 -39 30 0.0 3.5 0.00 0.00 0.00 88 1015.8